Weather in Meizhou

China     24°17′13″N   116°05′25″E
temp.,
°C
wind,
m/s
gust,
m/s
humid.,
%
clouds,
%
prec.,
mm/h
press.,
hPa
HPBL,
m
20 april, tue
tue2023:00+16ne0194100 0.2 101545
02:00+16nne0095100 0.6 101441
05:00+16ne1196100 1.7 101469
08:00+18ene128749 2.2 1016264
11:00+23sse016487 0.0 1015839
14:00+28w115043 0.0 10121311
17:00+26w225877 0.0 1011778
20:00+22ssw117797 0.0 101330
21 april, wed
wed2123:00+21sse2374100 0.0 1015159
02:00+19s117720 0.0 101330
05:00+18sse11843 0.0 101411
08:00+22se11650 0.0 1015417
11:00+28wnw11490 0.0 10141106
14:00+31w214433 0.0 10101874
17:00+29w224815 0.0 10091166
20:00+25sse116537 0.0 101021
22 april, thu
thu2223:00+21s226927 0.0 1012105
02:00+20sw11730 0.0 101122
05:00+19ssw11780 0.0 101111
08:00+23wsw01610 0.0 1011380
11:00+29wsw22480 0.0 10101146
14:00+32w33428 0.0 10071994
17:00+30nw345084 0.0 1005852
20:00+26nnw116636 0.0 100719
23 april, fri
fri2323:00+22se22843 1.7 100846
02:00+21se11861 1.7 100820
05:00+20ese11880 0.0 100811
08:00+24n01710 0.0 1009346
11:00+31wnw124842 0.1 10091552
14:00+33w223978 0.1 10062256
17:00+31wnw234312 0.0 1005445
20:00+25se2371100 0.0 100875
24 april, sat
sat2423:00+23ese128250 0.4 101055
02:00+23ese1284100 0.4 1010117
05:00+22se128453 0.0 101085
08:00+25sse126917 0.0 1011681
11:00+30s224923 0.1 10101610
14:00+31s4343100 0.1 10082166
17:00+27sse3653100 0.0 1007584
20:00+25sse366334 0.0 1010397